Terug naar catalogus

STARLINK-35051

ActiefCommunicatieSSO
NORAD 65380·PAYLOAD·🇺🇸 United States

Gelanceerd Aug 30, 2025 vanaf Vandenberg Space Force Base

Loading…

Volgende Passages (komende 24 uur)

TLE

VersSource: CelesTrak SupGP

Epoch: Sep 15, 2026, 02:52 UTC

1 65380C 25191B   26258.11993056  .00030096  00000+0  93377-3 0  2584
2 65380  97.2843 124.1980 0001857  98.9666 214.9691 15.33439734    12

Volg STARLINK-35051 in realtime met AllMySat

Download on the App Store